sat.trackr.live / text

‹ back to catalog

COSMOS 2549

NORAD 47546 · 2021-008A

PAYLOAD ACTIVE UNKNOWN

§ Identity

Operator
Country
CIS
Launch date
2021-02-02
Launch site
PLMSC
Launch vehicle
Mass (kg)
RCS (m²)

External: N2YO · Heavens-Above · Gunter

§ Orbital elements

Epoch: 2026-09-20T23:02:34.666080Z

Period
103.07 min
Inclination
67.1485°
Eccentricity
0.0007405
Mean motion
13.97130185 rev/d
Perigee alt
898.4 km
Apogee alt
909.1 km
Semi-major
7,281.9 km
B*
1.4176e-5
RAAN
112.1463°
Arg perigee
266.1938°
Mean anomaly
93.8300°
Rev number
28,721

§ Raw data

COSMOS 25491 47546U 21008A   26263.96012345 -.00000056  00000+0  14176-4 0  99902 47546  67.1485 112.1463 0007405 266.1938  93.8300 13.97130185287219

JSON: /api/v1/satellites/47546 · /tle

For live sub-satellite position, see the globe view (requires WebGL).

§ Visibility from observer

Set your observer location to see the next 7 days of passes ≥ 10°. The values pass through the URL so the page stays shareable.

No JS? Fill the form by hand. The geolocation button needs JavaScript.